Terminal Aerodrome Forecast
Issued by NWS

Home | Current Version | Previous Version | Text Only | Print | Product List | Glossary On
Versions: 1 2 3 4 5 6 7 8 9 10 11 12 13 14 15 16 17 18 19 20 21 22 23 24 25 26 27 28 29 30 31 32 33 34 35 36 37 38 39 40 41 42 43 44 45 46 47 48 49 50
000
FTUS43 KMKX 251937 AAA
TAFUES
TAF AMD
KUES 251937Z 2520/2618 24011G24KT 6SM TSRA SCT040CB BKN080
      TEMPO 2520/2521 2SM TSRA SCT025 OVC035CB
     FM252130 22013G23KT P6SM SCT040 BKN080
     FM260100 24007KT P6SM SCT100
     FM260800 27005KT P6SM FEW250=

USA.gov is the U.S. government's official web portal to all federal, state and local government web resources and services.